When you browse on this site, cookies collect data to enhance your experience and personalize the content and advertising you see.
Visit our Privacy Policy to learn more. By continuing to use the site, you agree to this use of cookies and data.
  • In Romania
  • List of Countries
  • For 7 days
  • Water Temperature
  • Satellite Maps
  • Weather Map
  • Weather Widgets
  • user-avatar
    Login

    Hourly Weather Luanda

    Today, 20 June, Thursday

    Time Temperature Precipitation Wind Pressure Humidity
    00:00 +20°C° 0 mm 3 mps 756 mmHg 91%
    01:00 +20°C° 0 mm 2 mps 756 mmHg 91%
    02:00 +20°C° 0 mm 2 mps 756 mmHg 92%
    03:00 +19°C° 0 mm 2 mps 756 mmHg 92%
    04:00 +19°C° 0 mm 2 mps 756 mmHg 92%
    05:00 +19°C° 0 mm 2 mps 756 mmHg 92%
    06:00 +20°C° 0 mm 2 mps 756 mmHg 92%
    07:00 +20°C° 0 mm 2 mps 756 mmHg 92%
    08:00 +24°C° 0 mm 2 mps 756 mmHg 79%
    09:00 +26°C° 0 mm 2 mps 756 mmHg 66%
    10:00 +29°C° 0 mm 2 mps 757 mmHg 53%
    11:00 +31°C° 0 mm 3 mps 756 mmHg 46%
    12:00 +34°C° 0 mm 4 mps 755 mmHg 38%
    13:00 +36°C° 0 mm 4 mps 755 mmHg 31%
    14:00 +35°C° 0 mm 5 mps 754 mmHg 35%
    15:00 +34°C° 0 mm 5 mps 753 mmHg 39%
    16:00 +33°C° 0 mm 6 mps 753 mmHg 43%
    17:00 +30°C° 0 mm 6 mps 753 mmHg 52%
    18:00 +27°C° 0 mm 5 mps 754 mmHg 61%
    19:00 +25°C° 0 mm 5 mps 754 mmHg 70%
    20:00 +23°C° 0 mm 5 mps 755 mmHg 73%
    21:00 +22°C° 0 mm 4 mps 755 mmHg 76%
    22:00 +22°C° 0 mm 3 mps 755 mmHg 78%
    23:00 +21°C° 0 mm 3 mps 755 mmHg 79%

    Tomorrow, 21 June, Friday

    Time Temperature Precipitation Wind Pressure Humidity
    00:00 +20°C° 0 mm 2 mps 755 mmHg 80%
    01:00 +20°C° 0 mm 2 mps 755 mmHg 80%
    02:00 +19°C° 0 mm 2 mps 755 mmHg 81%
    03:00 +20°C° 0 mm 1 mps 755 mmHg 81%
    04:00 +20°C° 0 mm 1 mps 755 mmHg 82%
    05:00 +20°C° 0 mm 1 mps 755 mmHg 81%
    06:00 +20°C° 0 mm 1 mps 756 mmHg 79%
    07:00 +21°C° 0 mm 1 mps 756 mmHg 78%
    08:00 +24°C° 0 mm 1 mps 756 mmHg 68%
    09:00 +27°C° 0 mm 1 mps 757 mmHg 58%
    10:00 +29°C° 0 mm 2 mps 757 mmHg 48%
    11:00 +31°C° 0 mm 2 mps 756 mmHg 43%
    12:00 +33°C° 0 mm 3 mps 755 mmHg 39%
    13:00 +35°C° 0 mm 4 mps 755 mmHg 35%
    14:00 +33°C° 0 mm 5 mps 754 mmHg 41%
    15:00 +32°C° 0 mm 5 mps 754 mmHg 46%
    16:00 +30°C° 0 mm 6 mps 753 mmHg 52%
    17:00 +28°C° 0 mm 5 mps 754 mmHg 64%
    18:00 +25°C° 0 mm 5 mps 754 mmHg 75%
    19:00 +22°C° 0 mm 4 mps 754 mmHg 87%
    20:00 +21°C° 0 mm 3 mps 755 mmHg 89%
    21:00 +21°C° 0 mm 2 mps 755 mmHg 92%
    22:00 +20°C° 0 mm 2 mps 756 mmHg 94%
    23:00 +20°C° 0 mm 2 mps 756 mmHg 95%

    Day after tomorrow, 22 June, Saturday

    Time Temperature Precipitation Wind Pressure Humidity
    00:00 +19°C° 0 mm 2 mps 756 mmHg 95%
    01:00 +19°C° 0 mm 2 mps 756 mmHg 95%
    02:00 +19°C° 0 mm 2 mps 756 mmHg 95%
    03:00 +19°C° 0 mm 2 mps 756 mmHg 96%
    04:00 +19°C° 0 mm 3 mps 755 mmHg 96%
    05:00 +19°C° 0 mm 2 mps 756 mmHg 96%
    06:00 +19°C° 0 mm 2 mps 756 mmHg 96%
    07:00 +19°C° 0 mm 2 mps 756 mmHg 96%
    08:00 +23°C° 0 mm 2 mps 756 mmHg 83%
    09:00 +26°C° 0 mm 1 mps 757 mmHg 70%
    10:00 +28°C° 0 mm 1 mps 757 mmHg 57%
    11:00 +29°C° 0 mm 2 mps 756 mmHg 55%
    12:00 +30°C° 0 mm 3 mps 756 mmHg 52%
    13:00 +30°C° 0 mm 3 mps 755 mmHg 50%
    14:00 +29°C° 0 mm 4 mps 755 mmHg 56%
    15:00 +28°C° 0 mm 4 mps 754 mmHg 62%
    16:00 +27°C° 0 mm 5 mps 754 mmHg 68%
    17:00 +25°C° 0 mm 4 mps 754 mmHg 76%
    18:00 +23°C° 0 mm 4 mps 754 mmHg 84%
    19:00 +21°C° 0 mm 3 mps 755 mmHg 92%
    20:00 +21°C° 0 mm 3 mps 755 mmHg 93%
    21:00 +20°C° 0 mm 2 mps 756 mmHg 93%
    22:00 +20°C° 0 mm 2 mps 756 mmHg 94%
    23:00 +19°C° 0 mm 2 mps 756 mmHg 95%

    23 June, Sunday

    Time Temperature Precipitation Wind Pressure Humidity
    00:00 +20°C° 0 mm 1 mps 756 mmHg 96%
    01:00 +19°C° 0 mm 1 mps 756 mmHg 97%
    02:00 +20°C° 0 mm 1 mps 756 mmHg 96%
    03:00 +19°C° 0 mm 2 mps 756 mmHg 95%
    04:00 +19°C° 0 mm 3 mps 755 mmHg 95%
    05:00 +20°C° 0 mm 2 mps 756 mmHg 91%
    06:00 +20°C° 0 mm 2 mps 756 mmHg 88%
    07:00 +21°C° 0 mm 2 mps 757 mmHg 85%
    08:00 +24°C° 0 mm 1 mps 757 mmHg 75%
    09:00 +25°C° 0 mm 1 mps 757 mmHg 64%
    10:00 +27°C° 0 mm 1 mps 757 mmHg 54%
    11:00 +28°C° 0 mm 1 mps 756 mmHg 52%
    12:00 +29°C° 0 mm 2 mps 756 mmHg 49%
    13:00 +30°C° 0 mm 3 mps 755 mmHg 47%
    14:00 +29°C° 0 mm 3 mps 755 mmHg 51%
    15:00 +28°C° 0 mm 4 mps 755 mmHg 56%
    16:00 +27°C° 0 mm 5 mps 754 mmHg 61%
    17:00 +25°C° 0 mm 4 mps 755 mmHg 69%
    18:00 +23°C° 0 mm 4 mps 755 mmHg 78%
    19:00 +21°C° 0 mm 3 mps 755 mmHg 87%
    20:00 +20°C° 0 mm 3 mps 756 mmHg 89%
    21:00 +20°C° 0 mm 2 mps 756 mmHg 90%
    22:00 +19°C° 0 mm 2 mps 757 mmHg 92%
    23:00 +19°C° 0 mm 2 mps 757 mmHg 93%

    24 June, Monday

    Time Temperature Precipitation Wind Pressure Humidity
    00:00 +19°C° 0 mm 2 mps 757 mmHg 94%
    01:00 +18°C° 0 mm 2 mps 756 mmHg 95%
    02:00 +18°C° 0 mm 2 mps 756 mmHg 95%
    03:00 +18°C° 0 mm 3 mps 756 mmHg 95%
    04:00 +18°C° 0 mm 3 mps 756 mmHg 95%
    05:00 +18°C° 0 mm 3 mps 756 mmHg 95%
    06:00 +18°C° 0 mm 3 mps 756 mmHg 95%
    07:00 +18°C° 0 mm 3 mps 757 mmHg 94%
    08:00 +21°C° 0 mm 2 mps 757 mmHg 82%
    09:00 +24°C° 0 mm 2 mps 757 mmHg 70%
    10:00 +26°C° 0 mm 1 mps 757 mmHg 58%
    11:00 +28°C° 0 mm 2 mps 756 mmHg 52%
    12:00 +30°C° 0 mm 3 mps 755 mmHg 46%
    13:00 +32°C° 0 mm 4 mps 754 mmHg 40%
    14:00 +30°C° 0 mm 4 mps 754 mmHg 45%
    15:00 +29°C° 0 mm 5 mps 754 mmHg 51%
    16:00 +28°C° 0 mm 5 mps 753 mmHg 57%
    17:00 +26°C° 0 mm 5 mps 754 mmHg 66%
    18:00 +23°C° 0 mm 5 mps 754 mmHg 75%
    19:00 +21°C° 0 mm 4 mps 754 mmHg 84%
    20:00 +20°C° 0 mm 4 mps 755 mmHg 87%
    21:00 +20°C° 0 mm 4 mps 755 mmHg 90%
    22:00 +19°C° 0 mm 3 mps 756 mmHg 93%
    23:00 +19°C° 0 mm 3 mps 756 mmHg 94%

    25 June, Tuesday

    Time Temperature Precipitation Wind Pressure Humidity
    00:00 +18°C° 0 mm 3 mps 755 mmHg 94%
    01:00 +18°C° 0 mm 3 mps 755 mmHg 95%
    02:00 +18°C° 0 mm 2 mps 755 mmHg 96%
    03:00 +17°C° 0 mm 2 mps 755 mmHg 96%
    04:00 +17°C° 0 mm 2 mps 755 mmHg 97%
    05:00 +18°C° 0 mm 2 mps 756 mmHg 94%
    06:00 +19°C° 0 mm 2 mps 756 mmHg 91%
    07:00 +20°C° 0 mm 2 mps 756 mmHg 88%
    08:00 +21°C° 0 mm 2 mps 756 mmHg 81%
    09:00 +23°C° 0 mm 2 mps 756 mmHg 75%
    10:00 +24°C° 0 mm 1 mps 756 mmHg 69%
    11:00 +26°C° 0 mm 2 mps 756 mmHg 60%
    12:00 +28°C° 0 mm 3 mps 755 mmHg 51%
    13:00 +30°C° 0 mm 4 mps 754 mmHg 42%
    14:00 +29°C° 0 mm 4 mps 754 mmHg 48%
    15:00 +28°C° 0 mm 5 mps 753 mmHg 54%
    16:00 +27°C° 0 mm 6 mps 753 mmHg 59%
    17:00 +25°C° 0 mm 5 mps 753 mmHg 68%
    18:00 +23°C° 0 mm 5 mps 754 mmHg 77%
    19:00 +21°C° 0 mm 5 mps 754 mmHg 85%
    20:00 +20°C° 0 mm 5 mps 755 mmHg 88%
    21:00 +20°C° 0 mm 4 mps 755 mmHg 90%
    22:00 +19°C° 0 mm 4 mps 756 mmHg 93%
    23:00 +19°C° 0 mm 3 mps 756 mmHg 94%
    Show more